Location: Complexul Astronomic Baia Mare
(47.6577°N, 23.5639°E)
Time: 05:44:02
(UTC+03:00)

ISS - Pass Details

Date: 21 March 2017
Orbit: 399 x 409 km, 51.6° (Epoch: 30 March)

Event Time Altitude Azimuth Distance (km) Brightness Sun altitude
Exits shadow 04:03:39 33° 97° (E) 719 -2.2 -23.9°
Drops below altitude 10° 04:05:37 10° 106° (ESE) 1,474 -0.4 -23.6°
Sets 04:07:43 0° 108° (ESE) 2,334 0.7 -23.3°
